Погода в Кривом Роге

Украина / Днепропетровская область     47°54′37″N   33°23′30″E
темп.,
°C
ветер,
м/с
пор.,
м/с
влажн.,
%
обл.,
%
осадки,
мм/ч
давл.,
гПа
погр.,
м
11 мая, вт
вт1100:00+10сз5136571 0.0 1019433
03:00+11ссз71363100 0.0 1018691
06:00+10с61375100 0.1 1017563
09:00+13с71167100 0.1 1016591
12:00+18ссв91158100 0.0 10141245
15:00+17ссв81363100 0.2 10141635
18:00+15св69593 0.2 10151386
21:00+10св410670 0.2 1016312
12 мая, ср
ср1200:00+8с38775 0.0 1016211
03:00+6ссв498729 0.0 1015372
06:00+8ссв488099 0.0 1014669
09:00+10св566673 0.2 10141174
12:00+11св466888 0.3 10131047
15:00+11ссв557050 0.8 1013852
18:00+11с226383 0.0 10131038
21:00+9с1175100 0.0 101380
13 мая, чт
чт1300:00+8св118258 0.0 101327
03:00+7в11835 0.0 101317
06:00+7в22827 0.0 101344
09:00+13вюв34610 0.0 1013639
12:00+18ююв345276 0.0 10131344
15:00+20юв4553100 0.0 10121611
18:00+20вюв3657100 0.0 1011999
21:00+15вюв477779 0.1 1011129
14 мая, пт
пт1400:00+14юв358595 0.0 1010115
03:00+12ююв3590100 0.0 101098
06:00+12ю23913 0.0 101071
09:00+18ю3557100 0.0 1010536
12:00+22ю5644100 0.0 10101011
15:00+24ю5744100 0.0 10091664
18:00+23ю5849100 0.0 10091041
21:00+18ююз49663 0.0 1010298
15 мая, сб
сб1500:00+15юз377917 0.0 1010161
03:00+14ююз3679100 0.0 1011126
06:00+13ююз3585100 0.0 1012141
09:00+18зюз466379 0.0 1012533
12:00+22зюз474722 0.0 10131677
15:00+24юз4638100 0.0 10122782
18:00+23зюз344422 0.1 10121551
21:00+18ююз116097 0.1 101212